Location: Winnipeg
(49.8830°N, 97.1670°W)
Time: 03:37:49
(UTC-06:00)

ISS - Pass Details

Date: 02 February 2021
Orbit: 417 x 422 km, 51.6° (Epoch: 07 March)

Event Time Altitude Azimuth Distance (km) Brightness Sun altitude
Rises 18:50:57 0° 288° (WNW) 2,376 1.3 -13.9°
Reaches altitude 10° 18:53:05 10° 283° (WNW) 1,510 0.2 -14.2°
Maximum altitude 18:56:22 49° 207° (SSW) 553 -3.0 -14.8°
Enters shadow 18:58:40 18° 137° (SE) 1,127 -1.9 -15.1°
